Location: Unspecified
(0.0000°N, 0.0000°E)
Time: 15:20:33
(UTC+00:00)

N. Korean satellite - Pass Details

Date: 21 February 2018
Orbit: 459 x 514 km, 97.2° (Epoch: 24 February)

Event Time Altitude Azimuth Distance (km) Brightness Sun altitude
Rises 18:52:02 0° 192° (SSW) 2,493 10.5 -9.5°
Reaches altitude 10° 18:54:27 10° 209° (SSW) 1,609 9.8 -10.0°
Maximum altitude 18:57:03 20° 259° (W) 1,112 9.6 -10.7°
Drops below altitude 10° 18:59:39 10° 308° (NW) 1,596 9.8 -11.3°
Sets 19:02:02 0° 326° (NW) 2,466 10.5 -11.9°
